TimeEST,TemperatureF,Dew PointF,Humidity,Sea Level PressureIn,VisibilityMPH,Wind Direction,Wind SpeedMPH,Gust SpeedMPH,PrecipitationIn,Events,Conditions,WindDirDegrees,DateUTC
1:53 AM,23.0,17.1,78,30.02,10.0,South,4.6,-,N/A,,Mostly Cloudy,170,2013-01-16 06:53:00
2:53 AM,23.0,17.1,78,29.99,10.0,Variable,3.5,-,N/A,,Clear,0,2013-01-16 07:53:00
3:53 AM,23.0,17.1,78,29.96,10.0,SSW,8.1,-,N/A,,Clear,200,2013-01-16 08:53:00
4:53 AM,23.0,17.1,78,29.92,10.0,SSW,6.9,-,N/A,,Clear,200,2013-01-16 09:53:00
5:53 AM,24.1,16.0,71,29.88,10.0,SSW,6.9,-,N/A,,Clear,200,2013-01-16 10:53:00
7:53 AM,24.1,15.1,69,29.81,10.0,SSW,9.2,-,N/A,,Scattered Clouds,200,2013-01-16 12:53:00
8:53 AM,26.1,16.0,66,29.79,10.0,SSW,9.2,18.4,N/A,,Mostly Cloudy,200,2013-01-16 13:53:00
9:53 AM,28.0,17.1,63,29.75,10.0,SSW,11.5,18.4,N/A,,Mostly Cloudy,200,2013-01-16 14:53:00
10:53 AM,28.9,19.0,67,29.72,10.0,SSW,8.1,18.4,0.00,Snow,Light Snow,210,2013-01-16 15:53:00
11:29 AM,30.2,21.2,69,29.68,2.0,SW,15.0,23.0,0.00,Snow,Light Snow,220,2013-01-16 16:29:00
11:53 AM,30.0,23.0,75,29.69,1.5,SW,12.7,23.0,0.00,Snow,Light Snow,230,2013-01-16 16:53:00
12:51 PM,28.4,26.6,93,29.64,1.0,SW,9.2,20.7,0.00,Snow,Light Snow,220,2013-01-16 17:51:00
12:53 PM,28.9,26.1,89,29.67,1.0,SW,8.1,20.7,0.00,Snow,Light Snow,220,2013-01-16 17:53:00
1:15 PM,30.2,26.6,86,29.65,0.8,Variable,5.8,-,0.01,Snow,Light Snow,0,2013-01-16 18:15:00
1:53 PM,30.0,27.0,88,29.68,0.8,SW,6.9,-,0.03,Snow,Light Snow,230,2013-01-16 18:53:00
2:20 PM,30.2,26.6,86,29.66,1.5,WSW,11.5,18.4,0.01,Snow,Light Snow,250,2013-01-16 19:20:00
2:26 PM,30.2,26.6,86,29.66,2.5,WSW,13.8,-,0.01,Snow,Light Snow,250,2013-01-16 19:26:00
2:35 PM,30.2,26.6,86,29.66,3.0,WSW,9.2,20.7,0.01,Snow,Light Snow,240,2013-01-16 19:35:00
2:41 PM,30.2,26.6,86,29.66,3.0,WSW,11.5,18.4,0.01,Snow,Light Snow,240,2013-01-16 19:41:00
2:53 PM,30.9,26.1,82,29.69,3.0,WSW,8.1,17.3,0.01,Snow,Light Snow,240,2013-01-16 19:53:00
3:53 PM,30.0,25.0,82,29.71,7.0,SW,5.8,-,0.00,Snow,Light Snow,230,2013-01-16 20:53:00
4:53 PM,30.9,24.1,76,29.74,10.0,WSW,6.9,-,0.00,Snow,Light Snow,250,2013-01-16 21:53:00
5:53 PM,30.9,24.1,76,29.78,10.0,West,6.9,-,0.00,Snow,Light Snow,280,2013-01-16 22:53:00
6:53 PM,30.9,24.1,76,29.80,7.0,West,6.9,-,0.00,Snow,Light Snow,270,2013-01-16 23:53:00
7:28 PM,30.2,24.8,80,29.79,2.5,WSW,5.8,-,0.00,Snow,Light Snow,250,2013-01-17 00:28:00
7:53 PM,30.0,26.1,85,29.83,2.0,WSW,5.8,-,0.00,Snow,Light Snow,240,2013-01-17 00:53:00
8:18 PM,30.2,26.6,86,29.82,1.5,WSW,5.8,-,0.00,Snow,Light Snow,250,2013-01-17 01:18:00
8:48 PM,30.2,26.6,86,29.83,0.8,West,5.8,-,0.01,Snow,Light Snow,280,2013-01-17 01:48:00
8:53 PM,30.0,27.0,88,29.86,0.8,West,5.8,-,0.01,Snow,Light Snow,280,2013-01-17 01:53:00
9:03 PM,30.2,26.6,86,29.83,1.0,WNW,11.5,17.3,0.00,Snow,Light Snow,300,2013-01-17 02:03:00
9:15 PM,30.2,26.6,86,29.85,0.8,NNW,15.0,20.7,0.00,Snow,Light Snow,330,2013-01-17 02:15:00
9:28 PM,28.4,24.8,86,29.86,1.0,NNW,9.2,18.4,0.01,Snow,Light Snow,340,2013-01-17 02:28:00
9:45 PM,28.4,24.8,86,29.87,2.0,NNW,9.2,-,0.01,Snow,Light Snow,340,2013-01-17 02:45:00
9:53 PM,28.9,23.0,78,29.91,3.0,NNW,8.1,-,0.01,Snow,Light Snow,340,2013-01-17 02:53:00
10:48 PM,28.4,17.6,64,29.91,10.0,NNW,13.8,-,0.00,,Overcast,340,2013-01-17 03:48:00
10:53 PM,28.9,17.1,61,29.94,10.0,NNW,15.0,23.0,0.00,,Overcast,340,2013-01-17 03:53:00
11:53 PM,28.0,15.1,58,29.98,10.0,North,12.7,20.7,N/A,,Overcast,350,2013-01-17 04:53:00